Dewpoint
55 54 54 54 53 54 52 51 51 52 51 56 56 57 57 59 58 58 59 57 57 57
56 55 54 54 53 54 54 53 53 52 53 55 55 56 58 58 58 58 58 58 58 57
55 55 55 54 53 53 53 53 53 54 53 54 54 57 57 57 57 57 57 57 57 57
55 55 54 55 54 54 53 53 53 53 53 53 54 54 55 56 56 56 56 56 56 56
56 56 55 55 55 55 55 54 52 52 54 53 53 55 56 56 56 56 55 55 56 56
56 56 56 56 55 56 55 55 55 53 54 55 55 55 55 55 55 55 55 55 55 55
56 56 55 56 56 56 56 56 56 55 55 55 55 54 54 54 54 55 55 55 50 44
56 56 57 56 56 56 56 55 55 55 55 55 55 53 53 55 55 54 44 39 37 37
55 55 56 56 56 56 56 56 56 56 55 52 45 39 41 47 44 41 38 35 34 34
54 55 55 56 56 56 56 55 52 45 42 39 38 37 37 37 36 35 34 33 32 32
53 54 54 55 55 51 47 43 39 37 36 35 35 35 35 34 32 31 31 30 30 30
53 53 53 50 44 41 39 36 35 34 34 33 33 33 32 30 29 29 29 30 29 28
52 48 43 40 38 36 34 32 32 31 32 32 31 32 31 29 28 27 27 27 28 29
43 39 37 35 34 32 31 31 30 30 31 31 32 32 31 30 28 27 26 25 24 24
Lifted_Index
3 3 3 4 5 6 6 6 6 6 5 4 4 3 2 1 1 0 0 0 -0 -0
2 3 3 4 5 5 5 6 6 5 5 4 3 3 2 1 1 1 0 -0 -0 -0
2 2 3 3 4 5 5 5 5 5 5 4 3 2 2 1 1 1 0 0 -0 -0
2 2 2 3 3 4 4 4 4 4 4 4 3 2 2 1 1 0 0 0 0 -0
2 2 2 2 2 2 3 3 3 3 3 3 2 2 1 1 1 0 0 0 0 0
1 2 2 2 2 2 2 2 2 2 2 2 2 1 1 1 1 0 0 0 0 0
1 1 1 1 1 1 1 1 1 2 2 1 1 1 1 1 1 0 0 0 0 0
0 0 0 1 1 1 1 1 1 1 1 1 1 1 1 1 1 1 0 0 0 0
-0 -0 -0 -0 0 0 1 1 1 1 1 1 1 1 1 1 1 1 1 0 1 1
-1 -1 -0 -0 -0 0 0 1 1 1 1 1 1 1 1 1 1 1 1 1 1 2
-1 -1 -1 -0 -0 0 0 1 1 1 2 2 2 1 1 1 1 1 2 3 4 5
-1 -1 -1 -0 -0 0 1 1 1 1 2 2 2 2 2 2 2 2 4 6 8 9
-2 -1 -1 -1 -0 -0 1 1 1 2 2 2 3 4 5 5 5 5 6 8 10 11
-2 -2 -1 -1 -1 -0 0 1 1 2 2 3 5 6 7 8 8 7 8 9 11 12